Location: *
(52.2090°N, 4.1550°W)
Time: 05:43:30
(UTC+00:00)

EO 1 Del DPAF - Pass Details

Date: 19 July 2019
Orbit: 517 x 521 km, 98.1° (Epoch: 21 August)

Event Time Altitude Azimuth Distance (km) Brightness Sun altitude
Rises 21:28:31 0° 16° (NNE) 2,666 7.3 -7.7°
Reaches altitude 10° 21:30:39 10° 19° (NNE) 1,772 6.4 -7.9°
Maximum altitude 21:34:27 69° 103° (ESE) 565 3.2 -8.3°
Drops below altitude 10° 21:38:14 10° 187° (S) 1,754 5.5 -8.7°
Enters shadow 21:39:51 - 190° (S) 2,440 6.2 -8.8°
